Weather in Novouleshkovskay

Russia / Krasnodar Krai     46°00′00″N   39°59′15″E
temp.,
°C
wind,
m/s
gust,
m/s
humid.,
%
clouds,
%
prec.,
mm/h
press.,
hPa
HPBL,
m
22 april, thu
thu2200:00+11wnw008389 0.0 102110
03:00+9nw2290100 0.0 102118
06:00+8nnw2291100 0.0 102229
09:00+13nne2278100 0.0 1023425
12:00+16e1165100 0.2 10221030
15:00+17sw1161100 0.9 10211168
18:00+13sw248187 3.0 102297
21:00+11nw488537 3.3 1023198
23 april, fri
fri2300:00+9wnw11845 0.0 102310
03:00+8wsw33910 0.0 102450
06:00+7wsw23930 0.0 102460
09:00+12wsw34710 0.0 1024503
12:00+16wsw45598 0.0 10231312
15:00+17wsw45528 0.0 10221834
18:00+16sw2266100 0.0 102032
21:00+13sse2263100 0.0 102021
24 april, sat
sat2400:00+11w2375100 0.0 101952
03:00+10wsw117997 0.1 101914
06:00+10sw378165 0.0 1019177
09:00+14wsw57665 0.0 1019713
12:00+16wsw695816 0.0 10181723
15:00+15w796728 0.6 10181368
18:00+13wnw587495 0.1 1019720
21:00+10wnw4870100 0.1 1021304
25 april, sun
sun2500:00+8w3973100 0.0 1021251
03:00+7n258386 0.0 1022120
06:00+6nne3584100 0.0 1022133
09:00+9ne4463100 0.0 1022573
12:00+11ne4454100 0.0 10211052
15:00+11ne4459100 0.0 10201186
18:00+9ene3586100 0.6 1020437
21:00+8ene4791100 1.1 1019450
26 april, mon
mon2600:00+7ene3794100 1.7 1019360
03:00+7ne3696100 3.3 1018256
06:00+7ne3697100 1.3 1018269
09:00+7ne3595100 1.6 1018302
12:00+8ene3392100 0.0 1017461
15:00+9e1187100 0.1 1017511
18:00+10sw0085100 0.0 1017328
21:00+8wsw129397 0.1 101814